Regional Weather Roundup
Issued by NWS Goodland, KS

Home | Current Version | Previous Version | Graphics & Text | Print | Product List | Glossary On
Versions: 1 2 3 4 5 6 7 8 9 10 11 12 13 14 15 16 17 18 19 20 21 22 23 24 25 26 27 28 29 30 31 32 33 34 35 36 37 38 39 40 41 42 43 44 45 46 47 48 49 50
000
ASUS43 KGLD 210308
RWRGLD

GOODLAND FORECAST AREA HOURLY WEATHER ROUNDUP
NATIONAL WEATHER SERVICE GOODLAND KS
800 PM MST SAT DEC 20 2014

...OFFICIAL OBSERVATIONS...

CITY           SKY/WX    TMP DP  RH WIND       PRES   REMARKS
GOODLAND KS    CLOUDY    33  28  81 S3        29.95F
HILL CITY KS   MOCLDY    40  33  76 W5        29.98S
IMPERIAL NEB   PTCLDY    33  25  72 SW3       29.94F
MCCOOK NEB     CLEAR     33  27  78 SW9       29.95S
AKRON CO       MOCLDY    33  22  63 SE5       29.93F
BURLINGTON CO  MOCLDY    36  29  75 S9        29.93F
LIMON CO       MOCLDY    26  20  77 CALM      29.93F
$$

...UNOFFICIAL OBSERVATIONS...

CITY           SKY/WX    TMP DP  RH WIND       PRES   REMARKS
COLBY KS       CLEAR     36  32  87 CALM      29.97S
GOVE KS          N/A     37  32  82 MISG        N/A
NORTON KS      CLEAR     34  27  75 S7        29.96S
SHARON SPRINGS   N/A     31  28  86 SW7         N/A
TRIBUNE KS     CLEAR     30  28  93 S7        29.98S
KIT CARSON CO    N/A     32  28  83 MISG        N/A
YUMA CO          N/A     29  24  80 CALM        N/A
$$


USA.gov is the U.S. government's official web portal to all federal, state and local government web resources and services.